When you browse on this site, cookies collect data to enhance your experience and personalize the content and advertising you see.
Visit our Privacy Policy to learn more. By continuing to use the site, you agree to this use of cookies and data.
  • In Slovakia
  • List of Countries
  • For 7 days
  • Water Temperature
  • Satellite Maps
  • Weather Map
  • Weather Widgets
  • user-avatar
    Login

    Hourly Weather Vanadzor

    Today, 21 March, Thursday

    Time Temperature Precipitation Wind Pressure Humidity
    00:00 +3°C° 0.1 mm 1 mps 635 mmHg 90%
    01:00 +2°C° 0 mm 1 mps 635 mmHg 91%
    02:00 +2°C° 0 mm 1 mps 634 mmHg 92%
    03:00 -1°C° 0 mm 2 mps 634 mmHg 90%
    04:00 -1°C° 0 mm 2 mps 634 mmHg 88%
    05:00 0°C° 0 mm 1 mps 634 mmHg 85%
    06:00 0°C° 0 mm 1 mps 634 mmHg 82%
    07:00 +2°C° 0 mm 1 mps 634 mmHg 78%
    08:00 +2°C° 0 mm 0 mps 635 mmHg 75%
    09:00 +5°C° 0 mm 1 mps 635 mmHg 71%
    10:00 +6°C° 0 mm 1 mps 635 mmHg 70%
    11:00 +7°C° 0 mm 1 mps 635 mmHg 69%
    12:00 +7°C° 0 mm 1 mps 635 mmHg 68%
    13:00 +7°C° 0 mm 1 mps 635 mmHg 67%
    14:00 +8°C° 0 mm 1 mps 635 mmHg 65%
    15:00 +8°C° 0 mm 1 mps 635 mmHg 64%
    16:00 +7°C° 0 mm 1 mps 635 mmHg 66%
    17:00 +6°C° 0 mm 1 mps 635 mmHg 68%
    18:00 +5°C° 0 mm 1 mps 635 mmHg 69%
    19:00 +5°C° 0 mm 1 mps 635 mmHg 73%
    20:00 +4°C° 0 mm 1 mps 635 mmHg 77%
    21:00 +3°C° 0 mm 1 mps 635 mmHg 80%
    22:00 +3°C° 0 mm 1 mps 635 mmHg 82%
    23:00 +2°C° 0 mm 1 mps 635 mmHg 84%

    Tomorrow, 22 March, Friday

    Time Temperature Precipitation Wind Pressure Humidity
    00:00 +2°C° 0 mm 1 mps 636 mmHg 86%
    01:00 +2°C° 0 mm 1 mps 636 mmHg 87%
    02:00 +1°C° 0 mm 1 mps 636 mmHg 88%
    03:00 0°C° 0 mm 0 mps 636 mmHg 88%
    04:00 0°C° 0 mm 0 mps 636 mmHg 88%
    05:00 0°C° 0 mm 0 mps 635 mmHg 88%
    06:00 -1°C° 0 mm 0 mps 635 mmHg 88%
    07:00 +1°C° 0 mm 0 mps 636 mmHg 84%
    08:00 +2°C° 0 mm 0 mps 636 mmHg 79%
    09:00 +3°C° 0 mm 0 mps 636 mmHg 74%
    10:00 +5°C° 0 mm 1 mps 636 mmHg 69%
    11:00 +5°C° 0 mm 1 mps 636 mmHg 64%
    12:00 +6°C° 0 mm 1 mps 635 mmHg 59%
    13:00 +6°C° 0 mm 1 mps 635 mmHg 57%
    14:00 +6°C° 0 mm 1 mps 635 mmHg 55%
    15:00 +6°C° 0 mm 2 mps 634 mmHg 52%
    16:00 +6°C° 0 mm 1 mps 634 mmHg 56%
    17:00 +4°C° 0 mm 1 mps 634 mmHg 59%
    18:00 +3°C° 0 mm 1 mps 634 mmHg 63%
    19:00 +3°C° 0 mm 1 mps 634 mmHg 65%
    20:00 +2°C° 0 mm 1 mps 634 mmHg 68%
    21:00 +1°C° 0 mm 1 mps 635 mmHg 71%
    22:00 +1°C° 0 mm 1 mps 635 mmHg 70%
    23:00 +1°C° 0 mm 1 mps 634 mmHg 70%

    Day after tomorrow, 23 March, Saturday

    Time Temperature Precipitation Wind Pressure Humidity
    00:00 0°C° 0 mm 1 mps 634 mmHg 69%
    01:00 0°C° 0 mm 1 mps 634 mmHg 68%
    02:00 0°C° 0 mm 1 mps 634 mmHg 67%
    03:00 0°C° 0 mm 1 mps 634 mmHg 66%
    04:00 -1°C° 0 mm 1 mps 634 mmHg 67%
    05:00 -1°C° 0 mm 1 mps 634 mmHg 67%
    06:00 -1°C° 0 mm 1 mps 633 mmHg 68%
    07:00 0°C° 0 mm 1 mps 634 mmHg 65%
    08:00 +2°C° 0 mm 1 mps 634 mmHg 62%
    09:00 +3°C° 0 mm 1 mps 634 mmHg 59%
    10:00 +3°C° 0 mm 2 mps 634 mmHg 56%
    11:00 +4°C° 0 mm 2 mps 633 mmHg 54%
    12:00 +5°C° 0 mm 2 mps 633 mmHg 51%
    13:00 +5°C° 0 mm 2 mps 632 mmHg 51%
    14:00 +5°C° 0 mm 2 mps 632 mmHg 52%
    15:00 +5°C° 0 mm 2 mps 631 mmHg 52%
    16:00 +4°C° 0.1 mm 2 mps 631 mmHg 56%
    17:00 +4°C° 0.1 mm 1 mps 631 mmHg 60%
    18:00 +3°C° 0.1 mm 1 mps 631 mmHg 63%
    19:00 +3°C° 0 mm 1 mps 631 mmHg 67%
    20:00 +2°C° 0 mm 1 mps 631 mmHg 71%
    21:00 +1°C° 0 mm 0 mps 631 mmHg 75%
    22:00 +1°C° 0 mm 1 mps 631 mmHg 76%
    23:00 +1°C° 0 mm 1 mps 630 mmHg 76%

    24 March, Sunday

    Time Temperature Precipitation Wind Pressure Humidity
    00:00 +1°C° 0 mm 1 mps 630 mmHg 77%
    01:00 +1°C° 0.1 mm 1 mps 630 mmHg 78%
    02:00 +1°C° 0.1 mm 1 mps 629 mmHg 79%
    03:00 +1°C° 0.1 mm 1 mps 629 mmHg 80%
    04:00 +1°C° 0.3 mm 1 mps 629 mmHg 83%
    05:00 -1°C° 0.3 mm 2 mps 629 mmHg 86%
    06:00 -1°C° 0.3 mm 2 mps 628 mmHg 88%
    07:00 -1°C° 0.6 mm 2 mps 628 mmHg 88%
    08:00 -1°C° 0.6 mm 2 mps 628 mmHg 87%
    09:00 +1°C° 0.6 mm 2 mps 628 mmHg 87%
    10:00 +1°C° 1.2 mm 2 mps 628 mmHg 88%
    11:00 +1°C° 1.2 mm 2 mps 628 mmHg 89%
    12:00 +1°C° 1.2 mm 2 mps 627 mmHg 91%
    13:00 +1°C° 1.3 mm 2 mps 627 mmHg 92%
    14:00 -1°C° 1.3 mm 2 mps 627 mmHg 93%
    15:00 -1°C° 1.3 mm 2 mps 626 mmHg 94%
    16:00 -1°C° 1.6 mm 2 mps 627 mmHg 95%
    17:00 -2°C° 1.6 mm 2 mps 627 mmHg 95%
    18:00 -2°C° 1.6 mm 2 mps 627 mmHg 96%
    19:00 -3°C° 0.5 mm 2 mps 627 mmHg 96%
    20:00 -3°C° 0.5 mm 2 mps 628 mmHg 96%
    21:00 -3°C° 0.5 mm 2 mps 628 mmHg 96%
    22:00 -3°C° 0.2 mm 2 mps 628 mmHg 96%
    23:00 -3°C° 0.2 mm 2 mps 628 mmHg 96%

    25 March, Monday

    Time Temperature Precipitation Wind Pressure Humidity
    00:00 -4°C° 0.2 mm 2 mps 628 mmHg 96%
    01:00 -3°C° 0.8 mm 2 mps 628 mmHg 96%
    02:00 -3°C° 0.8 mm 2 mps 628 mmHg 96%
    03:00 -1°C° 0.8 mm 1 mps 628 mmHg 96%
    04:00 -1°C° 0.3 mm 1 mps 628 mmHg 95%
    05:00 -1°C° 0.3 mm 1 mps 628 mmHg 95%
    06:00 -1°C° 0.3 mm 1 mps 628 mmHg 94%
    07:00 0°C° 0.1 mm 1 mps 629 mmHg 94%
    08:00 +1°C° 0.1 mm 1 mps 629 mmHg 93%
    09:00 +1°C° 0.1 mm 2 mps 629 mmHg 93%
    10:00 +1°C° 0.1 mm 2 mps 629 mmHg 94%
    11:00 +1°C° 0.1 mm 2 mps 628 mmHg 96%
    12:00 +1°C° 0.1 mm 3 mps 628 mmHg 97%
    13:00 +2°C° 0.1 mm 2 mps 628 mmHg 97%
    14:00 +2°C° 0.1 mm 2 mps 628 mmHg 96%
    15:00 +2°C° 0.1 mm 2 mps 628 mmHg 96%
    16:00 +2°C° 0.1 mm 2 mps 627 mmHg 96%
    17:00 +1°C° 0.1 mm 2 mps 627 mmHg 95%
    18:00 +1°C° 0.1 mm 2 mps 627 mmHg 95%
    19:00 +1°C° 0.1 mm 2 mps 627 mmHg 95%
    20:00 -1°C° 0.1 mm 2 mps 627 mmHg 96%
    21:00 -1°C° 0.1 mm 2 mps 628 mmHg 96%
    22:00 -1°C° 0.5 mm 2 mps 628 mmHg 96%
    23:00 -1°C° 0.5 mm 2 mps 628 mmHg 96%

    26 March, Tuesday

    Time Temperature Precipitation Wind Pressure Humidity
    00:00 -1°C° 0.5 mm 2 mps 628 mmHg 96%
    01:00 +1°C° 0.6 mm 1 mps 627 mmHg 96%
    02:00 +1°C° 0.6 mm 1 mps 627 mmHg 96%
    03:00 +1°C° 0.6 mm 1 mps 627 mmHg 96%
    04:00 +1°C° 0.3 mm 1 mps 627 mmHg 96%
    05:00 +1°C° 0.3 mm 1 mps 627 mmHg 96%
    06:00 0°C° 0.3 mm 1 mps 627 mmHg 96%
    07:00 +1°C° 0.2 mm 1 mps 628 mmHg 95%
    08:00 +2°C° 0.2 mm 1 mps 628 mmHg 94%
    09:00 +3°C° 0.2 mm 1 mps 628 mmHg 93%
    10:00 +3°C° 0.1 mm 1 mps 628 mmHg 94%
    11:00 +3°C° 0.1 mm 1 mps 627 mmHg 94%
    12:00 +4°C° 0.1 mm 1 mps 627 mmHg 95%
    13:00 +4°C° 0.2 mm 1 mps 627 mmHg 94%
    14:00 +4°C° 0.2 mm 1 mps 627 mmHg 94%
    15:00 +4°C° 0.2 mm 1 mps 626 mmHg 93%
    16:00 +4°C° 0 mm 1 mps 627 mmHg 93%
    17:00 +3°C° 0 mm 1 mps 627 mmHg 93%
    18:00 +3°C° 0 mm 1 mps 627 mmHg 93%
    19:00 +2°C° 0 mm 1 mps 627 mmHg 92%
    20:00 +1°C° 0 mm 1 mps 627 mmHg 92%
    21:00 0°C° 0 mm 1 mps 628 mmHg 92%
    22:00 0°C° 0 mm 1 mps 628 mmHg 91%
    23:00 0°C° 0 mm 1 mps 628 mmHg 90%
    Show more